Rochester/St. Mary's Hospita, MN
on Thursday, April 17, 2014

Thursday
Previous Day Next Day
Daily Summary
 ActualAverage (KRST)Record (KRST)
Temperature
Mean Temperature °F 48°F  
Max Temperature 44°F 58°F 84°F (1985)
Min Temperature 30°F 37°F 17°F (1983)
Degree Days
Heating Degree Days 27 18  
Month to date heating degree days 363  
Since 1 July heating degree days 7235  
Cooling Degree Days 0 0  
Month to date cooling degree days 0  
Year to date cooling degree days 0  
Moisture
Dew Point 29°F   
Average Humidity 80    
Maximum Humidity 98    
Minimum Humidity 53    
Precipitation
Precipitation 0.01 in 0.11 in 1.42 in (1959)
Month to date precipitation 1.69  
Year to date precipitation 5.26  
Snow
Snow 0.00 in 0.10 in 3.00 in (1910)
Month to date snowfall 2.3  
Since 1 July snowfall 50.9  
Snow Depth in   
Wind
Wind Speed 11 mph   
Max Wind Speed 21 mph   
Max Gust Speed 31 mph   
Visibility 8 miles   
Events     

Key: T is trace of precipitation, MM is missing value
Source: NWS Daily Summary
Time(CDT)TemperatureDew PointHumidity Pressure Visibility Wind DirectionWind SpeedGust SpeedPrecipitationEvents Conditions
12:12 AM 46.8°F 30.2°F 53% 29.82 in 10.0 miles ESE 11.5 mph 20.7 mph N/A   Overcast
12:33 AM 46.4°F 30.6°F 54% 29.82 in 10.0 miles SE 13.8 mph 23.0 mph N/A   Overcast
12:52 AM 45.3°F 31.5°F 58% 29.82 in 10.0 miles SSE 12.7 mph 23.0 mph N/A   Overcast
1:13 AM 43.7°F 32.5°F 65% 29.83 in 10.0 miles SE 11.5 mph 20.7 mph 0.01 in   Overcast
1:32 AM 43.0°F 33.3°F 69% 29.83 in 10.0 miles SSE 12.7 mph 20.7 mph 0.01 in   Overcast
1:52 AM 42.8°F 33.4°F 70% 29.84 in 10.0 miles South 8.1 mph 19.6 mph 0.01 in   Overcast
2:13 AM 42.3°F 34.0°F 72% 29.83 in 10.0 miles SSE 5.8 mph - N/A   Overcast
2:32 AM 43.2°F 34.7°F 72% 29.84 in 10.0 miles SW 3.5 mph - N/A   Overcast
2:52 AM 42.6°F 34.7°F 74% 29.85 in 10.0 miles WNW 6.9 mph - N/A   Overcast
3:13 AM 41.9°F 35.2°F 77% 29.87 in 10.0 miles WNW 10.4 mph - N/A   Overcast
3:32 AM 40.3°F 35.8°F 84% 29.88 in 10.0 miles WNW 17.3 mph 23.0 mph N/A   Mostly Cloudy
3:52 AM 39.4°F 37.0°F 91% 29.90 in 7.0 miles WNW 19.6 mph 26.5 mph N/A   Overcast
4:13 AM 35.6°F 34.2°F 94% 29.93 in 2.0 miles WNW 20.7 mph 31.1 mph N/A   Overcast
4:32 AM 34.0°F 32.9°F 96% 29.95 in 2.0 miles WNW 19.6 mph 24.2 mph N/A   Overcast
4:52 AM 32.9°F 32.0°F 96% 29.96 in 3.0 miles WNW 18.4 mph 28.8 mph N/A   Overcast
5:32 AM 32.0°F 31.5°F 98% 30.00 in 5.0 miles WNW 18.4 mph 26.5 mph N/A   Overcast
5:52 AM 31.8°F 30.9°F 96% 30.02 in 5.0 miles WNW 17.3 mph 25.3 mph N/A   Overcast
6:13 AM 31.1°F 30.2°F 96% 30.03 in 4.0 miles WNW 13.8 mph 26.5 mph N/A   Overcast
6:32 AM 31.3°F 30.4°F 96% 30.05 in 3.0 miles WNW 16.1 mph 24.2 mph N/A   Overcast
6:52 AM 31.1°F 30.2°F 96% 30.07 in 3.0 miles WNW 13.8 mph 24.2 mph N/A   Overcast
7:13 AM 31.5°F 30.4°F 96% 30.08 in 4.0 miles WNW 17.3 mph 24.2 mph N/A   Overcast
7:32 AM 31.1°F 30.0°F 96% 30.08 in 4.0 miles WNW 19.6 mph 23.0 mph N/A   Overcast
7:52 AM 31.1°F 30.0°F 96% 30.10 in 4.0 miles WNW 9.2 mph 18.4 mph N/A   Overcast
8:12 AM 31.1°F 30.0°F 96% 30.11 in 4.0 miles WNW 16.1 mph 23.0 mph N/A   Overcast
8:32 AM 30.9°F 29.8°F 96% 30.12 in 3.0 miles WNW 17.3 mph 24.2 mph N/A   Overcast
8:53 AM 31.1°F 30.2°F 96% 30.14 in 3.0 miles WNW 17.3 mph 21.9 mph N/A   Overcast
9:12 AM 31.8°F 30.9°F 96% 30.17 in 4.0 miles WNW 10.4 mph 21.9 mph N/A   Overcast
9:32 AM 31.6°F 30.2°F 94% 30.17 in 5.0 miles WNW 15.0 mph 21.9 mph N/A   Overcast
9:53 AM 32.0°F 30.0°F 92% 30.18 in 7.0 miles WNW 17.3 mph 23.0 mph N/A   Overcast
10:12 AM 32.0°F 30.0°F 92% 30.19 in 7.0 miles WNW 13.8 mph 20.7 mph N/A   Overcast
10:32 AM 32.0°F 29.8°F 92% 30.20 in 10.0 miles WNW 20.7 mph 24.2 mph N/A   Overcast
10:53 AM 32.0°F 29.5°F 90% 30.21 in 10.0 miles West 16.1 mph - N/A   Overcast
11:12 AM 32.2°F 29.1°F 88% 30.22 in 10.0 miles WNW 13.8 mph 23.0 mph N/A   Overcast
11:32 AM 32.2°F 29.5°F 90% 30.24 in 10.0 miles WNW 16.1 mph 20.7 mph N/A   Overcast
12:12 PM 32.0°F 28.4°F 87% 30.24 in 10.0 miles WNW 18.4 mph 24.2 mph N/A   Overcast
12:32 PM 32.2°F 28.8°F 87% 30.24 in 10.0 miles WNW 12.7 mph 20.7 mph N/A   Overcast
12:53 PM 32.4°F 28.4°F 85% 30.23 in 10.0 miles WNW 15.0 mph 23.0 mph N/A   Overcast
1:12 PM 32.9°F 28.4°F 84% 30.24 in 10.0 miles WNW 11.5 mph 20.7 mph N/A   Overcast
1:33 PM 33.6°F 28.9°F 83% 30.25 in 10.0 miles NW 5.8 mph 17.3 mph N/A   Overcast
1:53 PM 34.7°F 28.0°F 77% 30.26 in 10.0 miles NW 8.1 mph - N/A   Overcast
2:12 PM 34.3°F 27.7°F 77% 30.27 in 10.0 miles West 11.5 mph - N/A   Overcast
2:33 PM 35.4°F 28.2°F 75% 30.27 in 10.0 miles West 9.2 mph - N/A   Overcast
2:52 PM 35.4°F 27.5°F 73% 30.27 in 10.0 miles West 10.4 mph - N/A   Overcast
3:12 PM 35.4°F 27.7°F 73% 30.28 in 10.0 miles WNW 11.5 mph - N/A   Overcast
3:33 PM 35.2°F 27.5°F 73% 30.28 in 10.0 miles WNW 9.2 mph - N/A   Overcast
3:52 PM 35.8°F 26.8°F 70% 30.27 in 10.0 miles WNW 11.5 mph - N/A   Overcast
4:12 PM 35.8°F 27.0°F 70% 30.27 in 10.0 miles NW 10.4 mph - N/A   Overcast
4:33 PM 35.4°F 26.8°F 71% 30.27 in 10.0 miles West 12.7 mph - N/A   Overcast
4:52 PM 36.9°F 27.5°F 69% 30.28 in 10.0 miles WNW 10.4 mph - N/A   Overcast
5:12 PM 35.8°F 27.1°F 71% 30.28 in 10.0 miles NNW 4.6 mph - N/A   Overcast
5:33 PM 36.1°F 26.8°F 69% 30.28 in 10.0 miles WNW 6.9 mph 19.6 mph N/A   Overcast
5:52 PM 36.0°F 26.8°F 69% 30.28 in 10.0 miles NW 6.9 mph - N/A   Overcast
6:12 PM 35.8°F 26.6°F 69% 30.28 in 10.0 miles NNW 6.9 mph - N/A   Overcast
6:33 PM 35.6°F 26.6°F 70% 30.28 in 10.0 miles NNW 4.6 mph - N/A   Overcast
6:52 PM 35.8°F 26.8°F 70% 30.28 in 10.0 miles WNW 6.9 mph - N/A   Overcast
7:12 PM 35.8°F 26.4°F 69% 30.28 in 10.0 miles NW 6.9 mph - N/A   Overcast
7:33 PM 35.6°F 26.2°F 69% 30.28 in 10.0 miles Calm Calm - N/A   Overcast
7:52 PM 36.0°F 26.4°F 68% 30.28 in 10.0 miles NNE 3.5 mph - N/A   Overcast
8:12 PM 35.8°F 26.2°F 68% 30.29 in 10.0 miles Calm Calm - N/A   Overcast
8:33 PM 35.6°F 26.1°F 68% 30.30 in 10.0 miles Calm Calm - N/A   Scattered Clouds
8:52 PM 35.6°F 26.4°F 69% 30.31 in 10.0 miles Calm Calm - N/A   Clear
9:12 PM 34.9°F 26.2°F 71% 30.31 in 10.0 miles Calm Calm - N/A   Clear
9:33 PM 35.2°F 26.8°F 71% 30.31 in 10.0 miles Calm Calm - N/A   Clear
9:52 PM 34.5°F 26.2°F 72% 30.31 in 10.0 miles Calm Calm - N/A   Clear
10:12 PM 33.8°F 26.4°F 74% 30.31 in 10.0 miles Calm Calm - N/A   Clear
10:33 PM 33.3°F 26.2°F 75% 30.31 in 10.0 miles Calm Calm - N/A   Clear
10:52 PM 33.1°F 26.1°F 75% 30.30 in 10.0 miles Calm Calm - N/A   Clear
11:13 PM 32.9°F 26.2°F 76% 30.31 in 10.0 miles Calm Calm - N/A   Clear
11:33 PM 32.9°F 26.1°F 76% 30.31 in 10.0 miles Calm Calm - N/A   Clear
11:52 PM 32.7°F 26.2°F 77% 30.31 in 10.0 miles Calm Calm - N/A   Clear
Astronomy
Sunrise:06:23 AM (CDT) Moon Rise:10:47 PM (CDT)4/17
Sunset:07:56 PM (CDT) Moon Set:07:51 AM (CDT)4/17
Moon Phase
Apr. 17 Apr. 22 Apr. 29 May. 06 May. 14

Copyright © 2014 The Weather Underground, Inc.